Fort Leonard Wood, MO

10:27 AM CDT on October 17, 2019 (GMT -0500)
Waynesville Regional At Forney Field

Weather History for KTBN - May, 2019

Change the Weather History Date:

Wednesday, May 1, 2019

  Actual Average Record
Temperature  
Mean Temperature 66 °F -  
Max Temperature 75 °F 70 °F 84 °F (2002)
Min Temperature 57 °F 52 °F 35 °F (2001)
Growing Degree Days 16 (Base 50)    
Moisture  
Dew Point 59 °F    
Average Humidity 83    
Maximum Humidity 100    
Minimum Humidity 58    
Precipitation  
Precipitation 0.97 in - - ()
Sea Level Pressure  
Sea Level Pressure 29.96 in    
Wind  
Wind Speed 7 mph (South)    
Max Wind Speed 14 mph    
Max Gust Speed 21 mph    
Visibility 10 miles    
Events Rain , Thunderstorm    
Averages and records for this station are not official NWS values.
T = Trace of Precipitation, MM = Missing Value Source: NWS Daily Summary

Daily Weather History Graph

Daily Weather History Graph

Search for Another Location

Airport or City:

Astronomy

May. 01, 2019 Rise Set
Actual Time 6:13 AM CDT 7:58 PM CDT
Civil Twilight 5:44 AM CDT 8:27 PM CDT
Nautical Twilight 5:10 AM CDT 9:01 PM CDT
Astronomical Twilight 4:34 AM CDT 9:37 PM CDT
Moon 4:52 AM CDT (5/1) 4:52 PM CDT (5/1)
Length of Visible Light 14h 42m
Length of Day
13h 45m
Waning Crescent, 10% of the Moon is Illuminated
May 1
Waning Crescent
May 4
New
May 11
First Quarter
May 18
Full
May 26
Last Quarter

Hourly Weather History & Observations

Time (CDT) Temp. Dew Point Humidity Pressure Visibility Wind Dir Wind Speed Gust Speed Precip Events Conditions
12:56 AM 59.0 °F 58.6 °F 99% 29.92 in 3.0 mi Calm Calm - 0.25 in Rain , Thunderstorm Rain
1:56 AM 59.0 °F 58.6 °F 99% 29.92 in 10.0 mi SSW 6.9 mph - 0.14 in Rain Light Rain
2:40 AM 59.0 °F 59.0 °F 100% 29.90 in 9.0 mi South 11.5 mph - N/A Rain , Thunderstorm Thunderstorms and Rain
2:56 AM 59.5 °F 59.2 °F 99% 29.91 in 10.0 mi South 8.1 mph - 0.17 in Rain , Thunderstorm Thunderstorms and Rain
3:02 AM 59.0 °F 59.0 °F 100% 29.90 in 9.0 mi South 9.2 mph - N/A Rain Rain
3:56 AM 59.0 °F 58.6 °F 99% 29.94 in 7.0 mi South 11.5 mph - 0.26 in Rain Rain
4:21 AM 59.0 °F 59.0 °F 100% 29.90 in 7.0 mi South 10.4 mph 20.7 mph N/A Rain , Thunderstorm Thunderstorms and Rain
4:36 AM 59.0 °F 57.2 °F 94% 29.86 in 10.0 mi SE 13.8 mph - N/A Rain Light Rain
4:51 AM 59.0 °F 57.2 °F 94% 29.85 in 10.0 mi SSE 10.4 mph 20.7 mph N/A   Mostly Cloudy
4:56 AM 58.3 °F 57.4 °F 97% 29.87 in 10.0 mi SSE 6.9 mph - 0.15 in   Scattered Clouds
5:56 AM 57.9 °F 57.0 °F 97% 29.89 in 10.0 mi SSE 5.8 mph - N/A   Clear
6:56 AM 57.6 °F 57.0 °F 98% 29.95 in 10.0 mi SW 5.8 mph - N/A   Partly Cloudy
7:56 AM 58.5 °F 57.9 °F 98% 29.98 in 10.0 mi South 6.9 mph - N/A   Clear
8:56 AM 59.7 °F 57.9 °F 94% 29.97 in 10.0 mi South 9.2 mph - N/A   Partly Cloudy
9:06 AM 60.8 °F 57.2 °F 88% 29.96 in 10.0 mi South 10.4 mph 18.4 mph N/A   Mostly Cloudy
9:56 AM 61.5 °F 58.3 °F 89% 29.95 in 10.0 mi South 9.2 mph 20.7 mph N/A   Mostly Cloudy
10:56 AM 62.6 °F 58.6 °F 87% 29.99 in 10.0 mi South 9.2 mph - N/A   Overcast
11:56 AM 65.5 °F 58.8 °F 79% 30.00 in 10.0 mi South 8.1 mph - N/A   Mostly Cloudy
12:15 PM 66.2 °F 59.0 °F 78% 30.00 in 10.0 mi SSE 12.7 mph - N/A   Mostly Cloudy
12:25 PM 66.2 °F 59.0 °F 78% 30.00 in 10.0 mi South 8.1 mph - N/A   Mostly Cloudy
12:40 PM 68.0 °F 59.0 °F 73% 29.97 in 10.0 mi SE 10.4 mph - N/A   Mostly Cloudy
12:56 PM 68.5 °F 59.5 °F 73% 29.99 in 10.0 mi South 9.2 mph - N/A   Mostly Cloudy
1:56 PM 69.3 °F 58.6 °F 69% 29.99 in 10.0 mi South 8.1 mph - N/A   Mostly Cloudy
2:01 PM 69.8 °F 59.0 °F 68% 29.99 in 10.0 mi South 3.5 mph - N/A   Mostly Cloudy
2:31 PM 71.6 °F 59.0 °F 64% 29.98 in 10.0 mi South 9.2 mph - N/A   Mostly Cloudy
2:36 PM 71.6 °F 59.0 °F 64% 29.98 in 10.0 mi SSE 11.5 mph - N/A   Mostly Cloudy
2:46 PM 71.6 °F 59.0 °F 64% 29.98 in 10.0 mi South 8.1 mph - N/A   Mostly Cloudy
2:56 PM 71.4 °F 58.6 °F 64% 29.97 in 10.0 mi SSE 4.6 mph - N/A   Mostly Cloudy
3:56 PM 73.8 °F 59.0 °F 60% 29.96 in 10.0 mi South 5.8 mph - N/A   Partly Cloudy
4:56 PM 74.8 °F 59.5 °F 59% 29.96 in 10.0 mi Calm Calm - N/A   Partly Cloudy
5:56 PM 74.7 °F 58.8 °F 58% 29.96 in 10.0 mi South 6.9 mph - N/A   Partly Cloudy
6:56 PM 72.5 °F 60.4 °F 66% 29.98 in 10.0 mi SSE 8.1 mph - N/A   Partly Cloudy
7:56 PM 70.3 °F 60.4 °F 71% 29.99 in 10.0 mi SSE 8.1 mph - N/A   Mostly Cloudy
8:56 PM 66.6 °F 60.4 °F 81% 30.01 in 10.0 mi SSE 5.8 mph - N/A   Scattered Clouds
9:56 PM 64.8 °F 60.4 °F 86% 30.00 in 10.0 mi SE 8.1 mph - N/A   Clear
10:56 PM 64.6 °F 60.3 °F 86% 30.01 in 10.0 mi SE 6.9 mph - N/A   Partly Cloudy
11:56 PM 63.5 °F 59.9 °F 88% 29.99 in 10.0 mi SE 6.9 mph - N/A   Partly Cloudy